Regional Weather Roundup
Issued by NWS

Home | Current Version | Previous Version | Text Only | Print | Product List | Glossary Off
Versions: 1 2 3 4 5 6 7 8 9 10 11 12 13 14 15 16 17 18 19 20 21 22 23 24 25 26 27 28 29 30 31 32 33 34 35 36 37 38 39 40 41 42 43 44 45 46 47 48 49 50

000
ASUS43 KOAX 011402
RWRNE

WEATHER ROUNDUP FOR NEBRASKA
NATIONAL WEATHER SERVICE OMAHA NE
900 AM CDT WED JUL 01 2015

NOTES: SATELLITE DATA IS BEING USED TO AUGMENT CLOUD COVER ABOVE
       12000 FEET.
       "FAIR" INDICATES FEW OR NO CLOUDS BELOW 12,000 FEET WITH NO
       SIGNIFICANT WEATHER AND/OR OBSTRUCTIONS TO VISIBILITY.

  * THESE STATIONS DO NOT REPORT WEATHER SUCH AS RAIN...SNOW OR FOG.

NEZ001>004-019>022-054>056-011500-
NEBRASKA PANHANDLE

CITY           SKY/WX    TMP DP  RH WIND       PRES   REMARKS
SCOTTSBLUFF    MOSUNNY   73  59  61 W9        30.05R
ALLIANCE       SUNNY     72  64  76 W8        30.01R
CHADRON        SUNNY     73  62  68 W9        29.99R
KIMBALL          N/A    N/A N/A N/A MISG        N/A
SIDNEY         SUNNY     73  60  63 NW10      30.06R
$$

NEZ057>060-069>072-079>082-011500-
SOUTHWEST NEBRASKA

CITY           SKY/WX    TMP DP  RH WIND       PRES   REMARKS
NORTH PLATTE   MOSUNNY   71  65  81 N7        29.93R
IMPERIAL       SUNNY     79  63  57 N9        29.94S
LEXINGTON      SUNNY     70  65  82 N10       29.88S
MCCOOK         MOSUNNY   73  64  73 N13       29.89R HAZE
OGALLALA       SUNNY     75  65  70 NW12      29.95S
$$

NEZ005>010-023>029-035>040-094-011500-
NORTH CENTRAL NEBRASKA

CITY           SKY/WX    TMP DP  RH WIND       PRES   REMARKS
VALENTINE      SUNNY     73  65  75 W6        29.91R
AINSWORTH      SUNNY     69  64  83 CALM      29.90S
BROKEN BOW     SUNNY     70  63  78 N6        29.90R
O`NEILL        CLOUDY    67  65  92 SE5       29.91R FOG
ORD            CLOUDY    69  63  81 NE8       29.89R
$$

NEZ041-046>049-061>064-073>077-083>087-011500-
SOUTH CENTRAL NEBRASKA

CITY           SKY/WX    TMP DP  RH WIND       PRES   REMARKS
GRAND ISLAND   PTSUNNY   70  65  84 NE10      29.85F
AURORA         PTSUNNY   70  67  90 E10       29.85F
HASTINGS       SUNNY     72  65  78 NE10      29.84R
HEBRON         SUNNY     75  64  69 SE10      29.80F
HOLDREGE       MOSUNNY   69  64  83 N12G20    29.86R
KEARNEY *      PTSUNNY   70  63  78 N9        29.86R
$$

NEZ011>018-030>034-042>045-011500-
NORTHEAST NEBRASKA

CITY           SKY/WX    TMP DP  RH WIND       PRES   REMARKS
NORFOLK        CLOUDY    68  65  90 VRB5      29.91R FOG
COLUMBUS *     SUNNY     72  63  73 E9        29.89R
FREMONT        PTSUNNY   71  67  86 E10       29.89R
TEKAMAH        CLOUDY    69  66  90 NE12      29.88S
WAYNE          MOSUNNY   71  66  84 SE8       29.88R
$$

NEZ050>053-065>068-078-088>093-011500-
SOUTHEAST NEBRASKA

CITY           SKY/WX    TMP DP  RH WIND       PRES   REMARKS
LINCOLN        CLOUDY    71  68  90 E9        29.86R FOG
OMAHA EPPLEY   PTSUNNY   71  66  84 SE5       29.87R
BEATRICE       SUNNY     75  67  77 S12G17    29.82R
FALLS CITY     PTSUNNY   73  68  84 SE5       29.82R
NEBRASKA CITY  CLOUDY    70  68  95 E8        29.85R
PLATTSMOUTH    MOSUNNY   71  66  84 CALM      29.86R
$$

NEZ044-045-051>053-067-011500-
OMAHA AREA

CITY           SKY/WX    TMP DP  RH WIND       PRES   REMARKS
OMAHA EPPLEY   PTSUNNY   71  66  84 SE5       29.87R
FREMONT        PTSUNNY   71  67  86 E10       29.89R
MILLARD        MOSUNNY   72  66  83 E3        29.87R
OFFUTT AFB     MOSUNNY   72  67  84 NE8       29.86R
PLATTSMOUTH    MOSUNNY   71  66  84 CALM      29.86R
WAHOO          FAIR      72  67  85 NE10      29.88R
$$


USA.gov is the U.S. government's official web portal to all federal, state and local government web resources and services.